Location: Clyde
(45.1830°S, 169.3170°E)
Time: 23:57:39
(UTC+12:00)

Cosmos 2315 Rocket - Pass Details

Date: 24 January 2019
Orbit: 966 x 1002 km, 82.9° (Epoch: 21 April)

Event Time Altitude Azimuth Distance (km) Brightness Sun altitude
Rises 21:54:40 0° 187° (S) 3,750 7.7 -5.7°
Reaches altitude 10° 21:57:16 10° 184° (S) 2,789 7.0 -6.0°
Maximum altitude 22:03:39 67° 101° (E) 1,073 4.1 -7.0°
Drops below altitude 10° 22:09:53 10° 18° (NNE) 2,731 5.9 -7.8°
Enters shadow 22:11:50 - 15° (NNE) 3,457 6.4 -8.1°
